| time (UTC) | temp C | wind direction | speed KPH | gust KPH | rain 1hr cm | rain 24hr cm | rain mn cm | humidity % | barometer mb |
| 20260508235914 | 10 | 180 | 0.0 | 0.0 | 0.00 | 0.00 | 0.00 | 65 | 1012.8 |
| 20260508235404 | 10 | 180 | 0.0 | 0.0 | 0.00 | 0.00 | 0.00 | 64 | 1012.9 |
| 20260508234344 | 10 | 180 | 0.0 | 0.0 | 0.00 | 0.00 | 0.00 | 63 | 1012.5 |
| 20260508233834 | 10 | 180 | 0.0 | 0.0 | 0.00 | 0.00 | 0.00 | 63 | 1012.5 |
| 20260508233323 | 10 | 180 | 0.0 | 0.0 | 0.00 | 0.00 | 0.00 | 62 | 1012.3 |
| 20260508232813 | 10 | 180 | 0.0 | 0.0 | 0.00 | 0.00 | 0.00 | 61 | 1012.5 |
| 20260508232307 | 10 | 180 | 0.0 | 0.0 | 0.00 | 0.00 | 0.00 | 60 | 1012.5 |
| 20260508231754 | 11 | 180 | 0.0 | 0.0 | 0.00 | 0.00 | 0.00 | 58 | 1012.3 |
| 20260508230733 | 11 | 158 | 0.0 | 0.0 | 0.00 | 0.00 | 0.00 | 55 | 1011.9 |
| 20260508230223 | 11 | 158 | 0.0 | 0.0 | 0.00 | 0.00 | 0.00 | 55 | 1011.5 |
| 20260508225714 | 11 | 113 | 0.0 | 0.0 | 0.00 | 0.00 | 0.00 | 57 | 1011.5 |
| 20260508225203 | 11 | 113 | 0.0 | 0.0 | 0.00 | 0.00 | 0.00 | 57 | 1011.6 |
| 20260508224652 | 11 | 90 | 0.0 | 0.0 | 0.00 | 0.00 | 0.00 | 56 | 1011.4 |
| 20260508224143 | 11 | 113 | 0.0 | 0.0 | 0.00 | 0.00 | 0.00 | 55 | 1011.3 |
| 20260508223122 | 11 | 180 | 0.0 | 0.0 | 0.00 | 0.00 | 0.00 | 60 | 1011.3 |
| 20260508222102 | 11 | 180 | 0.0 | 0.0 | 0.00 | 0.00 | 0.00 | 58 | 1011.0 |
| 20260508221552 | 12 | 180 | 0.0 | 0.0 | 0.00 | 0.00 | 0.00 | 57 | 1011.0 |
| 20260508221042 | 12 | 180 | 0.0 | 0.0 | 0.00 | 0.00 | 0.00 | 56 | 1011.0 |
| 20260508220532 | 12 | 180 | 0.0 | 0.0 | 0.00 | 0.00 | 0.00 | 55 | 1010.8 |
| 20260508220022 | 12 | 180 | 0.0 | 0.0 | 0.00 | 0.00 | 0.00 | 55 | 1010.9 |
| 20260508215512 | 13 | 180 | 0.0 | 0.0 | 0.00 | 0.00 | 0.00 | 54 | 1010.8 |
| 20260508215001 | 13 | 180 | 0.0 | 0.0 | 0.00 | 0.00 | 0.00 | 52 | 1010.8 |
| 20260508214452 | 13 | 158 | 0.0 | 0.0 | 0.00 | 0.00 | 0.00 | 49 | 1010.8 |
| 20260508213942 | 13 | 225 | 0.0 | 0.0 | 0.00 | 0.00 | 0.00 | 49 | 1011.0 |
| 20260508213434 | 13 | 180 | 0.0 | 0.0 | 0.00 | 0.00 | 0.00 | 49 | 1010.9 |
| 20260508212921 | 14 | 180 | 0.0 | 0.0 | 0.00 | 0.00 | 0.00 | 49 | 1010.9 |
| 20260508212411 | 15 | 180 | 0.0 | 0.0 | 0.00 | 0.00 | 0.00 | 49 | 1010.9 |
| 20260508211900 | 15 | 203 | 0.0 | 0.0 | 0.00 | 0.00 | 0.00 | 48 | 1010.9 |
| 20260508211350 | 15 | 203 | 0.0 | 0.0 | 0.00 | 0.00 | 0.00 | 45 | 1010.6 |
| 20260508210841 | 16 | 203 | 0.0 | 0.0 | 0.00 | 0.00 | 0.00 | 45 | 1010.7 |
| 20260508210332 | 16 | 203 | 0.0 | 0.0 | 0.00 | 0.00 | 0.00 | 43 | 1010.9 |
| 20260508205821 | 17 | 203 | 0.0 | 0.0 | 0.00 | 0.00 | 0.00 | 41 | 1010.7 |
| 20260508205311 | 17 | 225 | 0.0 | 0.0 | 0.00 | 0.00 | 0.00 | 39 | 1010.6 |
| 20260508204800 | 17 | 225 | 0.0 | 3.2 | 0.00 | 0.00 | 0.00 | 39 | 1010.6 |
| 20260508203740 | 18 | 135 | 0.0 | 3.2 | 0.00 | 0.00 | 0.00 | 37 | 1010.5 |
| 20260508203230 | 18 | 203 | 0.0 | 3.2 | 0.00 | 0.00 | 0.00 | 37 | 1010.7 |
| 20260508202720 | 18 | 248 | 0.0 | 3.2 | 0.00 | 0.00 | 0.00 | 37 | 1010.6 |
| 20260508202209 | 18 | 90 | 0.0 | 3.2 | 0.00 | 0.00 | 0.00 | 35 | 1010.5 |
| 20260508201659 | 18 | 248 | 0.0 | 3.2 | 0.00 | 0.00 | 0.00 | 36 | 1010.6 |
| 20260508201151 | 18 | 225 | 0.0 | 6.4 | 0.00 | 0.00 | 0.00 | 35 | 1010.4 |
| 20260508200640 | 18 | 203 | 0.0 | 6.4 | 0.00 | 0.00 | 0.00 | 35 | 1010.6 |
| 20260508200129 | 18 | 248 | 0.0 | 3.2 | 0.00 | 0.00 | 0.00 | 34 | 1010.4 |
| 20260508195620 | 18 | 248 | 0.0 | 3.2 | 0.00 | 0.00 | 0.00 | 34 | 1010.5 |
| 20260508195110 | 18 | 293 | 0.0 | 3.2 | 0.00 | 0.00 | 0.00 | 33 | 1010.4 |
| 20260508194559 | 18 | 90 | 0.0 | 3.2 | 0.00 | 0.00 | 0.00 | 33 | 1010.4 |
| 20260508194048 | 19 | 248 | 0.0 | 3.2 | 0.00 | 0.00 | 0.00 | 33 | 1010.3 |
| 20260508193538 | 19 | 293 | 0.0 | 3.2 | 0.00 | 0.00 | 0.00 | 34 | 1010.2 |
| 20260508193029 | 18 | 203 | 0.0 | 11.3 | 0.00 | 0.00 | 0.00 | 33 | 1010.2 |
| 20260508192519 | 18 | 158 | 1.6 | 11.3 | 0.00 | 0.00 | 0.00 | 33 | 1010.3 |
| 20260508192008 | 18 | 135 | 0.0 | 6.4 | 0.00 | 0.00 | 0.00 | 32 | 1010.5 |
| 20260508190948 | 20 | 338 | 0.0 | 6.4 | 0.00 | 0.00 | 0.00 | 32 | 1010.6 |
| 20260508185927 | 19 | 113 | 0.0 | 6.4 | 0.00 | 0.00 | 0.00 | 33 | 1010.6 |
| 20260508185418 | 19 | 203 | 0.0 | 6.4 | 0.00 | 0.00 | 0.00 | 33 | 1010.5 |
| 20260508184907 | 18 | 315 | 1.6 | 6.4 | 0.00 | 0.00 | 0.00 | 32 | 1010.7 |
| 20260508184357 | 18 | 225 | 0.0 | 3.2 | 0.00 | 0.00 | 0.00 | 32 | 1010.8 |
| 20260508183336 | 18 | 135 | 0.0 | 6.4 | 0.00 | 0.00 | 0.00 | 32 | 1010.8 |
| 20260508182317 | 21 | 225 | 3.2 | 11.3 | 0.00 | 0.00 | 0.00 | 89 | 1011.1 |
| 20260508181807 | 18 | 158 | 0.0 | 3.2 | 0.00 | 0.00 | 0.00 | 32 | 1011.4 |
| 20260508180746 | 18 | 203 | 0.0 | 3.2 | 0.00 | 0.00 | 0.00 | 31 | 1011.5 |
| 20260508180237 | 18 | 158 | 0.0 | 6.4 | 0.00 | 0.00 | 0.00 | 32 | 1011.5 |
| 20260508175726 | 17 | 203 | 1.6 | 6.4 | 0.00 | 0.00 | 0.00 | 32 | 1011.8 |
| 20260508175216 | 18 | 248 | 0.0 | 6.4 | 0.00 | 0.00 | 0.00 | 33 | 1011.9 |
| 20260508174707 | 17 | 248 | 0.0 | 6.4 | 0.00 | 0.00 | 0.00 | 32 | 1012.0 |
| 20260508174158 | 17 | 225 | 0.0 | 6.4 | 0.00 | 0.00 | 0.00 | 32 | 1012.2 |
| 20260508173646 | 17 | 248 | 0.0 | 9.7 | 0.00 | 0.00 | 0.00 | 31 | 1012.2 |
| 20260508173137 | 17 | 225 | 0.0 | 9.7 | 0.00 | 0.00 | 0.00 | 31 | 1012.4 |
| 20260508172116 | 17 | 203 | 0.0 | 9.7 | 0.00 | 0.00 | 0.00 | 32 | 1012.4 |
| 20260508171606 | 17 | 180 | 0.0 | 6.4 | 0.00 | 0.00 | 0.00 | 31 | 1012.5 |
| 20260508171055 | 17 | 293 | 0.0 | 6.4 | 0.00 | 0.00 | 0.00 | 31 | 1012.8 |
| 20260508170545 | 17 | 270 | 0.0 | 3.2 | 0.00 | 0.00 | 0.00 | 31 | 1012.9 |
| 20260508170035 | 16 | 225 | 0.0 | 3.2 | 0.00 | 0.00 | 0.00 | 30 | 1013.2 |
| 20260508165525 | 17 | 203 | 0.0 | 11.3 | 0.00 | 0.00 | 0.00 | 30 | 1013.2 |
| 20260508165015 | 17 | 248 | 0.0 | 11.3 | 0.00 | 0.00 | 0.00 | 29 | 1013.4 |
| 20260508164506 | 17 | 180 | 0.0 | 6.4 | 0.00 | 0.00 | 0.00 | 28 | 1013.8 |
| 20260508163445 | 16 | 225 | 0.0 | 14.5 | 0.00 | 0.00 | 0.00 | 28 | 1013.9 |
| 20260508162934 | 16 | 270 | 0.0 | 14.5 | 0.00 | 0.00 | 0.00 | 29 | 1014.0 |
| 20260508162425 | 16 | 0 | 1.6 | 11.3 | 0.00 | 0.00 | 0.00 | 28 | 1014.0 |
| 20260508161914 | 16 | 248 | 0.0 | 6.4 | 0.00 | 0.00 | 0.00 | 28 | 1014.2 |
| 20260508161404 | 16 | 180 | 0.0 | 6.4 | 0.00 | 0.00 | 0.00 | 27 | 1014.1 |
| 20260508160854 | 16 | 45 | 0.0 | 6.4 | 0.00 | 0.00 | 0.00 | 27 | 1014.4 |
| 20260508160344 | 16 | 180 | 0.0 | 14.5 | 0.00 | 0.00 | 0.00 | 27 | 1014.3 |
| 20260508155833 | 16 | 225 | 0.0 | 14.5 | 0.00 | 0.00 | 0.00 | 27 | 1014.4 |
| 20260508155324 | 16 | 248 | 0.0 | 6.4 | 0.00 | 0.00 | 0.00 | 26 | 1014.7 |
| 20260508154814 | 16 | 315 | 0.0 | 6.4 | 0.00 | 0.00 | 0.00 | 28 | 1014.6 |
| 20260508154303 | 16 | 225 | 0.0 | 6.4 | 0.00 | 0.00 | 0.00 | 27 | 1014.8 |
| 20260508153754 | 16 | 225 | 0.0 | 6.4 | 0.00 | 0.00 | 0.00 | 28 | 1014.7 |
| 20260508153244 | 16 | 293 | 0.0 | 3.2 | 0.00 | 0.00 | 0.00 | 29 | 1014.6 |
| 20260508152223 | 15 | 180 | 0.0 | 6.4 | 0.00 | 0.00 | 0.00 | 28 | 1014.5 |
| 20260508151203 | 15 | 135 | 0.0 | 6.4 | 0.00 | 0.00 | 0.00 | 29 | 1014.9 |
| 20260508150653 | 15 | 180 | 0.0 | 11.3 | 0.00 | 0.00 | 0.00 | 29 | 1014.9 |
| 20260508150142 | 15 | 270 | 0.0 | 11.3 | 0.00 | 0.00 | 0.00 | 29 | 1014.9 |
| 20260508145632 | 15 | 248 | 0.0 | 11.3 | 0.00 | 0.00 | 0.00 | 29 | 1015.0 |
| 20260508145123 | 15 | 180 | 0.0 | 6.4 | 0.00 | 0.00 | 0.00 | 30 | 1014.8 |
| 20260508144612 | 15 | 248 | 0.0 | 6.4 | 0.00 | 0.00 | 0.00 | 31 | 1014.9 |
| 20260508144102 | 15 | 248 | 0.0 | 17.7 | 0.00 | 0.00 | 0.00 | 30 | 1015.0 |
| 20260508142532 | 14 | 203 | 0.0 | 3.2 | 0.00 | 0.00 | 0.00 | 33 | 1015.0 |
| 20260508142022 | 14 | 203 | 0.0 | 11.3 | 0.00 | 0.00 | 0.00 | 32 | 1015.0 |
| 20260508141513 | 14 | 203 | 0.0 | 11.3 | 0.00 | 0.00 | 0.00 | 34 | 1015.2 |
| 20260508141002 | 13 | 158 | 0.0 | 6.4 | 0.00 | 0.00 | 0.00 | 36 | 1015.3 |
| 20260508140451 | 13 | 203 | 0.0 | 6.4 | 0.00 | 0.00 | 0.00 | 38 | 1015.4 |
| 20260508135941 | 13 | 248 | 1.6 | 9.7 | 0.00 | 0.00 | 0.00 | 38 | 1015.3 |
| 20260508135430 | 13 | 180 | 0.0 | 9.7 | 0.00 | 0.00 | 0.00 | 39 | 1015.3 |
| 20260508134922 | 12 | 203 | 0.0 | 3.2 | 0.00 | 0.00 | 0.00 | 40 | 1015.4 |
| 20260508134411 | 13 | 203 | 0.0 | 6.4 | 0.00 | 0.00 | 0.00 | 40 | 1015.2 |
| 20260508133901 | 12 | 315 | 1.6 | 6.4 | 0.00 | 0.00 | 0.00 | 40 | 1015.4 |
| 20260508133350 | 12 | 203 | 0.0 | 6.4 | 0.00 | 0.00 | 0.00 | 41 | 1015.4 |
| 20260508132330 | 12 | 248 | 0.0 | 9.7 | 0.00 | 0.00 | 0.00 | 42 | 1015.4 |
| 20260508131821 | 12 | 203 | 0.0 | 3.2 | 0.00 | 0.00 | 0.00 | 42 | 1015.3 |
| 20260508131310 | 12 | 270 | 0.0 | 3.2 | 0.00 | 0.00 | 0.00 | 42 | 1015.5 |
| 20260508130801 | 11 | 203 | 0.0 | 6.4 | 0.00 | 0.00 | 0.00 | 43 | 1015.3 |
| 20260508130250 | 11 | 203 | 0.0 | 6.4 | 0.00 | 0.00 | 0.00 | 43 | 1015.3 |
| 20260508125740 | 11 | 225 | 0.0 | 9.7 | 0.00 | 0.00 | 0.00 | 44 | 1015.3 |
| 20260508124719 | 11 | 248 | 0.0 | 11.3 | 0.00 | 0.00 | 0.00 | 44 | 1015.3 |
| 20260508124208 | 11 | 248 | 1.6 | 11.3 | 0.00 | 0.00 | 0.00 | 44 | 1015.3 |
| 20260508123659 | 11 | 248 | 0.0 | 6.4 | 0.00 | 0.00 | 0.00 | 46 | 1015.1 |
| 20260508123149 | 10 | 180 | 0.0 | 14.5 | 0.00 | 0.00 | 0.00 | 45 | 1015.1 |
| 20260508122639 | 10 | 225 | 1.6 | 14.5 | 0.00 | 0.00 | 0.00 | 47 | 1015.0 |
| 20260508122130 | 10 | 225 | 0.0 | 11.3 | 0.00 | 0.00 | 0.00 | 48 | 1015.0 |
| 20260508121619 | 10 | 270 | 0.0 | 3.2 | 0.00 | 0.00 | 0.00 | 50 | 1014.9 |
| 20260508121110 | 9 | 248 | 0.0 | 3.2 | 0.00 | 0.00 | 0.00 | 52 | 1015.2 |
| 20260508120559 | 8 | 225 | 0.0 | 3.2 | 0.00 | 0.00 | 0.00 | 54 | 1014.9 |
| 20260508120053 | 8 | 203 | 0.0 | 3.2 | 0.00 | 0.00 | 0.00 | 56 | 1014.9 |
| 20260508115538 | 8 | 203 | 0.0 | 6.4 | 0.00 | 0.00 | 0.00 | 56 | 1014.9 |
| 20260508115028 | 7 | 293 | 0.0 | 6.4 | 0.00 | 0.00 | 0.00 | 56 | 1014.7 |
| 20260508114518 | 7 | 158 | 0.0 | 0.0 | 0.00 | 0.00 | 0.00 | 55 | 1014.8 |
| 20260508113458 | 7 | 180 | 0.0 | 0.0 | 0.00 | 0.00 | 0.00 | 56 | 1014.8 |
| 20260508112948 | 7 | 270 | 0.0 | 0.0 | 0.00 | 0.00 | 0.00 | 57 | 1014.8 |
| 20260508112438 | 7 | 203 | 0.0 | 0.0 | 0.00 | 0.00 | 0.00 | 57 | 1014.6 |
| 20260508111928 | 7 | 248 | 0.0 | 0.0 | 0.00 | 0.00 | 0.00 | 58 | 1014.8 |
| 20260508111417 | 7 | 248 | 0.0 | 0.0 | 0.00 | 0.00 | 0.00 | 57 | 1014.7 |
| 20260508110357 | 7 | 180 | 0.0 | 3.2 | 0.00 | 0.00 | 0.00 | 56 | 1014.5 |
| 20260508105847 | 6 | 248 | 0.0 | 0.0 | 0.00 | 0.00 | 0.00 | 58 | 1014.5 |
| 20260508104827 | 6 | 225 | 0.0 | 0.0 | 0.00 | 0.00 | 0.00 | 59 | 1014.6 |
| 20260508104316 | 6 | 180 | 0.0 | 0.0 | 0.00 | 0.00 | 0.00 | 59 | 1014.6 |
| 20260508103808 | 6 | 270 | 0.0 | 0.0 | 0.00 | 0.00 | 0.00 | 59 | 1014.8 |
| 20260508103256 | 6 | 248 | 0.0 | 0.0 | 0.00 | 0.00 | 0.00 | 59 | 1014.8 |
| 20260508102746 | 6 | 225 | 0.0 | 0.0 | 0.00 | 0.00 | 0.00 | 59 | 1014.6 |
| 20260508102236 | 6 | 203 | 0.0 | 0.0 | 0.00 | 0.00 | 0.00 | 58 | 1014.5 |
| 20260508100155 | 7 | 203 | 0.0 | 0.0 | 0.00 | 0.00 | 0.00 | 56 | 1014.2 |
| 20260508095646 | 7 | 248 | 0.0 | 0.0 | 0.00 | 0.00 | 0.00 | 55 | 1014.2 |
| 20260508095135 | 7 | 293 | 0.0 | 3.2 | 0.00 | 0.00 | 0.00 | 54 | 1014.0 |
| 20260508094622 | 7 | 270 | 0.0 | 3.2 | 0.00 | 0.00 | 0.00 | 54 | 1014.1 |
| 20260508094116 | 7 | 180 | 0.0 | 3.2 | 0.00 | 0.00 | 0.00 | 53 | 1013.9 |
| 20260508093605 | 7 | 0 | 0.0 | 3.2 | 0.00 | 0.00 | 0.00 | 53 | 1013.8 |
| 20260508093055 | 7 | 225 | 0.0 | 3.2 | 0.00 | 0.00 | 0.00 | 54 | 1013.7 |
| 20260508092545 | 7 | 293 | 0.0 | 3.2 | 0.00 | 0.00 | 0.00 | 53 | 1013.8 |
| 20260508092036 | 7 | 248 | 0.0 | 3.2 | 0.00 | 0.00 | 0.00 | 53 | 1013.4 |
| 20260508091525 | 7 | 248 | 0.0 | 3.2 | 0.00 | 0.00 | 0.00 | 54 | 1013.3 |
| 20260508091015 | 7 | 225 | 0.0 | 3.2 | 0.00 | 0.00 | 0.00 | 53 | 1013.4 |
| 20260508090504 | 7 | 225 | 0.0 | 6.4 | 0.00 | 0.00 | 0.00 | 53 | 1013.2 |
| 20260508085955 | 7 | 248 | 0.0 | 9.7 | 0.00 | 0.00 | 0.00 | 52 | 1013.1 |
| 20260508084934 | 8 | 248 | 0.0 | 3.2 | 0.00 | 0.00 | 0.00 | 51 | 1013.2 |
| 20260508084424 | 8 | 203 | 0.0 | 3.2 | 0.00 | 0.00 | 0.00 | 51 | 1013.3 |
| 20260508083914 | 8 | 203 | 0.0 | 3.2 | 0.00 | 0.00 | 0.00 | 52 | 1013.1 |
| 20260508083404 | 8 | 248 | 0.0 | 3.2 | 0.00 | 0.00 | 0.00 | 51 | 1013.2 |
| 20260508082343 | 8 | 248 | 0.0 | 3.2 | 0.00 | 0.00 | 0.00 | 50 | 1013.1 |
| 20260508081833 | 8 | 203 | 0.0 | 3.2 | 0.00 | 0.00 | 0.00 | 49 | 1012.9 |
| 20260508081324 | 8 | 180 | 0.0 | 3.2 | 0.00 | 0.00 | 0.00 | 48 | 1012.9 |
| 20260508080814 | 9 | 225 | 0.0 | 3.2 | 0.00 | 0.00 | 0.00 | 47 | 1012.9 |
| 20260508080303 | 9 | 248 | 0.0 | 6.4 | 0.00 | 0.00 | 0.00 | 48 | 1012.8 |
| 20260508075753 | 9 | 113 | 0.0 | 6.4 | 0.00 | 0.00 | 0.00 | 47 | 1012.7 |
| 20260508075244 | 8 | 248 | 0.0 | 6.4 | 0.00 | 0.00 | 0.00 | 50 | 1012.6 |
| 20260508074733 | 8 | 248 | 0.0 | 6.4 | 0.00 | 0.00 | 0.00 | 50 | 1012.6 |
| 20260508073713 | 8 | 248 | 0.0 | 9.7 | 0.00 | 0.00 | 0.00 | 50 | 1012.6 |
| 20260508073203 | 8 | 225 | 0.0 | 3.2 | 0.00 | 0.00 | 0.00 | 49 | 1012.5 |
| 20260508072652 | 8 | 180 | 0.0 | 3.2 | 0.00 | 0.00 | 0.00 | 49 | 1012.5 |
| 20260508071122 | 9 | 203 | 1.6 | 11.3 | 0.00 | 0.00 | 0.00 | 45 | 1012.6 |
| 20260508070612 | 9 | 90 | 1.6 | 12.9 | 0.00 | 0.00 | 0.00 | 45 | 1012.4 |
| 20260508065558 | 10 | 203 | 0.0 | 11.3 | 0.00 | 0.00 | 0.00 | 44 | 1012.5 |
| 20260508065041 | 10 | 248 | 0.0 | 11.3 | 0.00 | 0.00 | 0.00 | 44 | 1012.3 |
| 20260508064531 | 10 | 225 | 1.6 | 12.9 | 0.00 | 0.00 | 0.00 | 45 | 1012.4 |
| 20260508064021 | 10 | 225 | 0.0 | 12.9 | 0.00 | 0.00 | 0.00 | 46 | 1012.3 |
| 20260508063511 | 9 | 225 | 1.6 | 9.7 | 0.00 | 0.00 | 0.00 | 47 | 1012.4 |
| 20260508063001 | 9 | 338 | 0.0 | 9.7 | 0.00 | 0.00 | 0.00 | 47 | 1012.4 |
| 20260508062451 | 9 | 203 | 1.6 | 9.7 | 0.00 | 0.00 | 0.00 | 47 | 1012.2 |
| 20260508061941 | 9 | 248 | 0.0 | 12.9 | 0.00 | 0.00 | 0.00 | 49 | 1012.3 |
| 20260508061432 | 9 | 225 | 1.6 | 12.9 | 0.00 | 0.00 | 0.00 | 49 | 1012.4 |
| 20260508060921 | 9 | 158 | 0.0 | 11.3 | 0.00 | 0.00 | 0.00 | 49 | 1012.4 |
| 20260508060410 | 9 | 203 | 0.0 | 3.2 | 0.00 | 0.00 | 0.00 | 49 | 1012.5 |
| 20260508055901 | 8 | 203 | 0.0 | 6.4 | 0.00 | 0.00 | 0.00 | 50 | 1012.6 |
| 20260508055351 | 9 | 225 | 0.0 | 6.4 | 0.00 | 0.00 | 0.00 | 50 | 1012.5 |
| 20260508054841 | 8 | 180 | 0.0 | 3.2 | 0.00 | 0.00 | 0.00 | 52 | 1012.4 |
| 20260508054331 | 8 | 158 | 0.0 | 3.2 | 0.00 | 0.00 | 0.00 | 53 | 1012.4 |
| 20260508053820 | 8 | 248 | 0.0 | 3.2 | 0.00 | 0.00 | 0.00 | 54 | 1012.3 |
| 20260508053310 | 8 | 203 | 0.0 | 6.4 | 0.00 | 0.00 | 0.00 | 54 | 1012.3 |
| 20260508052800 | 8 | 248 | 1.6 | 6.4 | 0.00 | 0.00 | 0.00 | 54 | 1012.0 |
| 20260508052249 | 8 | 248 | 0.0 | 12.9 | 0.00 | 0.00 | 0.00 | 54 | 1012.1 |
| 20260508051739 | 8 | 248 | 0.0 | 12.9 | 0.00 | 0.00 | 0.00 | 54 | 1012.3 |
| 20260508051229 | 8 | 180 | 0.0 | 6.4 | 0.00 | 0.00 | 0.00 | 52 | 1012.2 |
| 20260508050721 | 8 | 248 | 0.0 | 11.3 | 0.00 | 0.00 | 0.00 | 52 | 1012.2 |
| 20260508050209 | 9 | 158 | 0.0 | 14.5 | 0.00 | 0.00 | 0.00 | 50 | 1012.3 |
| 20260508044639 | 8 | 180 | 0.0 | 6.4 | 0.00 | 0.00 | 0.00 | 52 | 1012.4 |
| 20260508043619 | 8 | 248 | 0.0 | 3.2 | 0.00 | 0.00 | 0.00 | 56 | 1012.5 |
| 20260508043109 | 7 | 225 | 0.0 | 0.0 | 0.00 | 0.00 | 0.00 | 58 | 1012.6 |
| 20260508042558 | 7 | 225 | 0.0 | 0.0 | 0.00 | 0.00 | 0.00 | 58 | 1012.4 |
| 20260508042049 | 7 | 248 | 0.0 | 0.0 | 0.00 | 0.00 | 0.00 | 58 | 1012.4 |
| 20260508041538 | 7 | 248 | 0.0 | 0.0 | 0.00 | 0.00 | 0.00 | 61 | 1012.2 |
| 20260508041028 | 7 | 225 | 0.0 | 0.0 | 0.00 | 0.00 | 0.00 | 63 | 1012.2 |
| 20260508040017 | 7 | 225 | 0.0 | 0.0 | 0.00 | 0.00 | 0.00 | 62 | 1011.8 |
| 20260508035457 | 7 | 225 | 0.0 | 0.0 | 0.00 | 0.00 | 0.00 | 62 | 1011.9 |
| 20260508034947 | 7 | 225 | 0.0 | 0.0 | 0.00 | 0.00 | 0.00 | 61 | 1011.9 |
| 20260508034438 | 7 | 203 | 0.0 | 0.0 | 0.00 | 0.00 | 0.00 | 59 | 1011.7 |
| 20260508033927 | 7 | 203 | 0.0 | 0.0 | 0.00 | 0.00 | 0.00 | 60 | 1011.8 |
| 20260508033418 | 7 | 203 | 0.0 | 0.0 | 0.00 | 0.00 | 0.00 | 59 | 1011.8 |
| 20260508032907 | 8 | 203 | 0.0 | 0.0 | 0.00 | 0.00 | 0.00 | 57 | 1012.0 |
| 20260508032357 | 7 | 203 | 0.0 | 0.0 | 0.00 | 0.00 | 0.00 | 58 | 1012.0 |
| 20260508031847 | 7 | 180 | 0.0 | 0.0 | 0.00 | 0.00 | 0.00 | 59 | 1012.0 |
| 20260508031337 | 7 | 180 | 0.0 | 6.4 | 0.00 | 0.00 | 0.00 | 59 | 1012.1 |
| 20260508030827 | 7 | 225 | 0.0 | 6.4 | 0.00 | 0.00 | 0.00 | 59 | 1012.1 |
| 20260508030316 | 7 | 248 | 0.0 | 3.2 | 0.00 | 0.00 | 0.00 | 59 | 1012.2 |
| 20260508025258 | 7 | 293 | 0.0 | 3.2 | 0.00 | 0.00 | 0.00 | 59 | 1012.0 |
| 20260508024747 | 8 | 225 | 0.0 | 0.0 | 0.00 | 0.00 | 0.00 | 57 | 1011.7 |
| 20260508023726 | 8 | 270 | 0.0 | 0.0 | 0.00 | 0.00 | 0.00 | 57 | 1011.5 |
| 20260508023216 | 7 | 293 | 0.0 | 0.0 | 0.00 | 0.00 | 0.00 | 59 | 1011.3 |
| 20260508022705 | 7 | 293 | 0.0 | 0.0 | 0.00 | 0.00 | 0.00 | 64 | 1011.6 |
| 20260508022156 | 6 | 315 | 0.0 | 0.0 | 0.00 | 0.00 | 0.00 | 65 | 1011.5 |
| 20260508021135 | 5 | 248 | 0.0 | 0.0 | 0.00 | 0.00 | 0.00 | 69 | 1011.2 |
| 20260508020115 | 3 | 315 | 0.0 | 0.0 | 0.00 | 0.00 | 0.00 | 78 | 1011.1 |
| 20260508015605 | 3 | 293 | 0.0 | 0.0 | 0.00 | 0.00 | 0.00 | 75 | 1011.0 |
| 20260508015056 | 5 | 45 | 0.0 | 0.0 | 0.00 | 0.00 | 0.00 | 71 | 1010.3 |
| 20260508013525 | 5 | 0 | 0.0 | 0.0 | 0.00 | 0.00 | 0.00 | 70 | 1010.4 |
| 20260508013015 | 5 | 0 | 0.0 | 0.0 | 0.00 | 0.00 | 0.00 | 69 | 1010.6 |
| 20260508011954 | 7 | 270 | 0.0 | 0.0 | 0.00 | 0.00 | 0.00 | 64 | 1010.4 |
| 20260508011445 | 7 | 248 | 0.0 | 0.0 | 0.00 | 0.00 | 0.00 | 59 | 1010.6 |
| 20260508010934 | 8 | 225 | 0.0 | 0.0 | 0.00 | 0.00 | 0.00 | 56 | 1010.8 |
| 20260508010424 | 8 | 225 | 0.0 | 0.0 | 0.00 | 0.00 | 0.00 | 57 | 1010.9 |
| 20260508005915 | 8 | 225 | 0.0 | 0.0 | 0.00 | 0.00 | 0.00 | 55 | 1010.8 |
| 20260508005404 | 8 | 225 | 0.0 | 0.0 | 0.00 | 0.00 | 0.00 | 54 | 1011.0 |
| 20260508004929 | 8 | 225 | 0.0 | 0.0 | 0.00 | 0.00 | 0.00 | 55 | 1010.9 |
| 20260508004346 | 8 | 225 | 0.0 | 0.0 | 0.00 | 0.00 | 0.00 | 55 | 1011.1 |
| 20260508003834 | 8 | 225 | 0.0 | 0.0 | 0.00 | 0.00 | 0.00 | 55 | 1010.5 |
| 20260508003324 | 8 | 225 | 0.0 | 0.0 | 0.00 | 0.00 | 0.00 | 55 | 1010.6 |
| 20260508002813 | 8 | 225 | 0.0 | 0.0 | 0.00 | 0.00 | 0.00 | 59 | 1010.8 |
| 20260508002306 | 7 | 225 | 0.0 | 0.0 | 0.00 | 0.00 | 0.00 | 65 | 1010.6 |
| 20260508001753 | 8 | 225 | 0.0 | 0.0 | 0.00 | 0.00 | 0.00 | 63 | 1010.6 |
| 20260508001242 | 8 | 225 | 0.0 | 0.0 | 0.00 | 0.00 | 0.00 | 60 | 1010.8 |